Little Falls, MN

7:24 PM CDT on April 29, 2017 (GMT -0500)
Little Falls-Morrison County

Weather History for KLXL - March, 2013

Change the Weather History Date:

Thursday, March 7, 2013

  Actual Average Record
Temperature  
Mean Temperature 13 °F -  
Max Temperature 30 °F 36 °F 75 °F (1987)
Min Temperature -4 °F 10 °F -24 °F (1967)
Degree Days  
Heating Degree Days 52    
Moisture  
Dew Point 7 °F    
Average Humidity 70    
Maximum Humidity 85    
Minimum Humidity 51    
Precipitation  
Precipitation 0.00 in - - ()
Sea Level Pressure  
Sea Level Pressure 30.30 in    
Wind  
Wind Speed 3 mph (ESE)    
Max Wind Speed 13 mph    
Max Gust Speed 16 mph    
Visibility 10 miles    
Events      
Averages and records for this station are not official NWS values.
T = Trace of Precipitation, MM = Missing Value Source: NWS Daily Summary

Daily Weather History Graph

Daily Weather History Graph

Search for Another Location

Airport or City:

Trip Planner

Search our weather history database for the weather conditions in past years. The results will help you decide how hot, cold, wet, or windy it might be!

Date:

Astronomy

Mar. 07, 2013 Rise Set
Actual Time 6:44 AM CST 6:12 PM CST
Civil Twilight 6:14 AM CST 6:42 PM CST
Nautical Twilight 5:40 AM CST 7:17 PM CST
Astronomical Twilight 5:05 AM CST 7:52 PM CST
Moon 3:56 AM CST (3/7) 1:50 PM CST (3/7)
Length of Visible Light 12h 27m
Length of Day
11h 28m
Waning Crescent, 20% of the Moon is Illuminated
Mar 7
Waning Crescent
Mar 11
New
Mar 19
First Quarter
Mar 27
Full
Apr 2
Last Quarter

Hourly Weather History & Observations

Time (CST) Temp. Windchill Dew Point Humidity Pressure Visibility Wind Dir Wind Speed Gust Speed Precip Events Conditions
12:15 AM 3.2 °F - -0.4 °F 85% 30.32 in 10.0 mi Calm Calm - N/A   Clear
12:35 AM 1.4 °F - -4.0 °F 78% 30.32 in 7.0 mi Calm Calm - N/A   Clear
12:55 AM 1.4 °F - -4.0 °F 78% 30.33 in 10.0 mi Calm Calm - N/A   Clear
1:14 AM 1.4 °F - -2.2 °F 85% 30.32 in 10.0 mi Calm Calm - N/A   Clear
1:35 AM 1.4 °F - -2.2 °F 85% 30.33 in 10.0 mi Calm Calm - N/A   Clear
1:55 AM 3.2 °F - -0.4 °F 85% 30.34 in 10.0 mi Calm Calm - N/A   Clear
2:15 AM 1.4 °F - -4.0 °F 78% 30.34 in 10.0 mi Calm Calm - N/A   Clear
2:35 AM 1.4 °F - -4.0 °F 78% 30.34 in 7.0 mi Calm Calm - N/A   Clear
2:55 AM -2.2 °F - -5.8 °F 85% 30.34 in 10.0 mi Calm Calm - N/A   Clear
3:15 AM -2.2 °F - -5.8 °F 85% 30.35 in 10.0 mi Calm Calm - N/A   Scattered Clouds
3:35 AM -0.4 °F - -5.8 °F 78% 30.34 in 10.0 mi Calm Calm - N/A   Mostly Cloudy
3:55 AM -2.2 °F - -5.8 °F 85% 30.34 in 7.0 mi Calm Calm - N/A   Overcast
4:15 AM -0.4 °F - -5.8 °F 78% 30.33 in 10.0 mi Calm Calm - N/A   Mostly Cloudy
4:35 AM -0.4 °F - -5.8 °F 78% 30.33 in 7.0 mi Calm Calm - N/A   Scattered Clouds
4:55 AM -4.0 °F - -7.6 °F 85% 30.32 in 10.0 mi Calm Calm - N/A   Clear
5:15 AM -2.2 °F - -7.6 °F 78% 30.32 in 10.0 mi Calm Calm - N/A   Clear
5:35 AM -2.2 °F - -5.8 °F 85% 30.33 in 10.0 mi Calm Calm - N/A   Clear
5:55 AM -0.4 °F - -5.8 °F 78% 30.34 in 10.0 mi Calm Calm - N/A   Clear
6:15 AM -0.4 °F - -5.8 °F 78% 30.34 in 10.0 mi Calm Calm - N/A   Clear
6:35 AM -2.2 °F - -7.6 °F 78% 30.33 in 10.0 mi Calm Calm - N/A   Clear
6:54 AM -0.4 °F - -5.8 °F 78% 30.33 in 7.0 mi Calm Calm - N/A   Clear
7:15 AM -0.4 °F - -5.8 °F 78% 30.32 in 7.0 mi Calm Calm - N/A   Clear
7:35 AM -0.4 °F - -4.0 °F 85% 30.33 in 7.0 mi Calm Calm - N/A   Clear
7:55 AM 3.2 °F - -0.4 °F 85% 30.34 in 7.0 mi Calm Calm - N/A   Clear
8:15 AM 3.2 °F - -0.4 °F 85% 30.35 in 7.0 mi Calm Calm - N/A   Clear
8:34 AM 3.2 °F - -0.4 °F 85% 30.34 in 7.0 mi Calm Calm - N/A   Clear
8:55 AM 12.2 °F - 8.6 °F 85% 30.34 in 10.0 mi Calm Calm - N/A   Clear
9:15 AM 17.6 °F 8.2 °F 12.2 °F 79% 30.34 in 10.0 mi SE 6.9 mph - N/A   Clear
9:34 AM 17.6 °F 8.2 °F 12.2 °F 79% 30.34 in 10.0 mi SE 6.9 mph - N/A   Clear
9:55 AM 19.4 °F 9.5 °F 12.2 °F 74% 30.35 in 10.0 mi ESE 8.1 mph - N/A   Clear
10:15 AM 19.4 °F 8.6 °F 12.2 °F 74% 30.34 in 7.0 mi SE 9.2 mph - N/A   Clear
10:35 AM 21.2 °F 10.9 °F 12.2 °F 68% 30.34 in 10.0 mi SE 9.2 mph - N/A   Clear
10:55 AM 23.0 °F 13.1 °F 12.2 °F 63% 30.33 in 10.0 mi ESE 9.2 mph - N/A   Clear
11:14 AM 23.0 °F 12.4 °F 12.2 °F 63% 30.33 in 10.0 mi SE 10.4 mph - N/A   Clear
11:35 AM 23.0 °F 13.1 °F 12.2 °F 63% 30.33 in 10.0 mi ESE 9.2 mph - N/A   Clear
11:55 AM 23.0 °F 14.7 °F 12.2 °F 63% 30.33 in 10.0 mi ESE 6.9 mph - N/A   Clear
12:14 PM 24.8 °F 14.0 °F 12.2 °F 59% 30.32 in 10.0 mi SE 11.5 mph - N/A   Clear
12:35 PM 26.6 °F 15.7 °F 14.0 °F 59% 30.32 in 10.0 mi ESE 12.7 mph - N/A   Clear
12:55 PM 26.6 °F 16.2 °F 14.0 °F 59% 30.31 in 10.0 mi SE 11.5 mph 16.1 mph N/A   Clear
1:14 PM 26.6 °F 17.5 °F 14.0 °F 59% 30.30 in 10.0 mi ESE 9.2 mph - N/A   Clear
1:35 PM 26.6 °F 16.2 °F 14.0 °F 59% 30.30 in 10.0 mi ESE 11.5 mph - N/A   Clear
1:55 PM 28.4 °F 21.2 °F 14.0 °F 55% 30.29 in 10.0 mi SE 6.9 mph - N/A   Clear
2:14 PM 28.4 °F 21.2 °F 14.0 °F 55% 30.29 in 10.0 mi ESE 6.9 mph - N/A   Clear
2:35 PM 28.4 °F 21.2 °F 14.0 °F 55% 30.29 in 10.0 mi East 6.9 mph - N/A   Clear
2:54 PM 28.4 °F 19.1 °F 14.0 °F 55% 30.28 in 10.0 mi ESE 10.4 mph - N/A   Clear
3:15 PM 28.4 °F 19.1 °F 14.0 °F 55% 30.27 in 10.0 mi ESE 10.4 mph 16.1 mph N/A   Clear
3:34 PM 30.2 °F 22.6 °F 14.0 °F 51% 30.27 in 10.0 mi ESE 8.1 mph - N/A   Clear
3:55 PM 30.2 °F 22.6 °F 14.0 °F 51% 30.27 in 10.0 mi ESE 8.1 mph - N/A   Clear
4:14 PM 30.2 °F 22.6 °F 15.8 °F 55% 30.26 in 10.0 mi ESE 8.1 mph 16.1 mph N/A   Clear
4:35 PM 30.2 °F 21.3 °F 14.0 °F 51% 30.26 in 10.0 mi ESE 10.4 mph - N/A   Clear
4:55 PM 28.4 °F 19.7 °F 15.8 °F 59% 30.25 in 10.0 mi East 9.2 mph - N/A   Clear
5:14 PM 28.4 °F 20.4 °F 14.0 °F 55% 30.25 in 10.0 mi ESE 8.1 mph - N/A   Clear
5:35 PM 28.4 °F 19.7 °F 14.0 °F 55% 30.25 in 10.0 mi ESE 9.2 mph - N/A   Clear
5:55 PM 28.4 °F 20.4 °F 14.0 °F 55% 30.24 in 10.0 mi ESE 8.1 mph - N/A   Clear
7:35 PM 26.6 °F 21.2 °F 14.0 °F 59% 30.25 in 10.0 mi East 4.6 mph - N/A   Clear
7:55 PM 26.6 °F 19.1 °F 14.0 °F 59% 30.25 in 10.0 mi ESE 6.9 mph - N/A   Clear
8:15 PM 26.6 °F 18.2 °F 14.0 °F 59% 30.25 in 10.0 mi ESE 8.1 mph - N/A   Clear
8:35 PM 24.8 °F 17.9 °F 14.0 °F 64% 30.25 in 10.0 mi ESE 5.8 mph - N/A   Clear
8:55 PM 24.8 °F 19.1 °F 14.0 °F 64% 30.26 in 10.0 mi ESE 4.6 mph - N/A   Clear
9:15 PM 23.0 °F 17.0 °F 14.0 °F 68% 30.26 in 10.0 mi ESE 4.6 mph - N/A   Clear
9:35 PM 23.0 °F 17.0 °F 14.0 °F 68% 30.26 in 10.0 mi SE 4.6 mph - N/A   Clear
9:55 PM 23.0 °F 15.8 °F 14.0 °F 68% 30.26 in 10.0 mi SE 5.8 mph - N/A   Clear
10:15 PM 23.0 °F 17.0 °F 14.0 °F 68% 30.26 in 10.0 mi SE 4.6 mph - N/A   Clear
10:35 PM 21.2 °F 16.4 °F 14.0 °F 74% 30.26 in 10.0 mi ESE 3.5 mph - N/A   Clear
10:55 PM 21.2 °F 14.9 °F 12.2 °F 68% 30.26 in 10.0 mi ESE 4.6 mph - N/A   Clear
11:15 PM 19.4 °F 14.3 °F 12.2 °F 74% 30.26 in 10.0 mi SE 3.5 mph - N/A   Clear
11:35 PM 19.4 °F - 12.2 °F 74% 30.27 in 10.0 mi Calm Calm - N/A   Clear
11:55 PM 19.4 °F - 12.2 °F 74% 30.26 in 10.0 mi Calm Calm - N/A   Clear